Regional Weather Roundup
Issued by NWS

Home | Current Version | Previous Version | Text Only | Print | Product List | Glossary Off
Versions: 1 2 3 4 5 6 7 8 9 10 11 12 13 14 15 16 17 18 19 20 21 22 23 24 25 26 27 28 29 30 31 32 33 34 35 36 37 38 39 40 41 42 43 44 45 46 47 48 49 50

017
ASUS44 KJAN 292203
RWRMS

MISSISSIPPI HOURLY WEATHER ROUNDUP
NATIONAL WEATHER SERVICE JACKSON MS
500 PM CDT TUE JUL 29 2014

NOTE: "FAIR: INDICATES FEW OR NO CLOUDS BELOW 12,000 FEET WITH NO
SIGNIFICANT WEATHER AND/OR OBSTRUCTIONS TO VISIBILITY.

MSZ001>002-007>008-010>013-018>021-025>028-034>036-292300-
NORTHWEST MISSISSIPPI

CITY           SKY/WX    TMP DP  RH WIND       PRES   REMARKS
CLARKSDALE     FAIR      81  57  44 N9G21     30.10F
CLEVELAND      FAIR      81  62  52 N13       30.08S
GREENWOOD      SUNNY     82  60  47 N12       30.07F
GREENVILLE     SUNNY     83  60  45 N12       30.08S
GRENADA        FAIR      81  57  44 N7        30.08S
OLIVE BRANCH   MOSUNNY   77  55  47 N8        30.11F
OXFORD           N/A     77  54  44 N6        30.12S
TUNICA         CLEAR     79  55  44 N12G18    30.11S
$$

MSZ003>006-009-014>017-022>024-029>033-037>039-292300-
NORTHEAST MISSISSIPPI

CITY           SKY/WX    TMP DP  RH WIND       PRES   REMARKS
BELMONT        FAIR      76  55  47 N10       30.09S
COLUMBUS AFB   SUNNY     80  55  42 N14       30.07S
CORINTH        MOCLDY    77  54  44 N10       30.10S
GOLDN TRIANGLE MOSUNNY   82  57  42 N14       30.07S
STARKVILLE     FAIR      79  55  44 N6        30.07R
TUPELO         SUNNY     78  52  40 NE10      30.08F
$$

MSZ040-058-292300-
CENTRAL MISSISSIPPI

CITY           SKY/WX    TMP DP  RH WIND       PRES   REMARKS
JACKSON INTL   MOSUNNY   87  64  46 N14       30.04F
JACKSON HAWKNS SUNNY     85  61  44 NW9       30.05S
MERIDIAN KEY   MOSUNNY   84  60  44 N13       30.02S
MERIDIAN NAS   MOSUNNY   85  63  47 N10       30.03S
RAYMOND        FAIR      86  81  84 NW9       30.05S HX 102
VICKSBURG      SUNNY     87  66  49 N10G18    30.05S
$$

MSZ059>079-292300-
SOUTH MISSISSIPPI

CITY           SKY/WX    TMP DP  RH WIND       PRES   REMARKS
BROOKHAVEN     FAIR      86  66  51 NW9       30.06S
COLUMBIA       FAIR      88  66  48 N6        30.01S HX  90
HATTIESBURG    MOSUNNY   89  62  40 N9        30.01F
MCCOMB         CLOUDY    88  61  40 VRB5      30.04S
NATCHEZ        PTSUNNY   86  64  48 N8        30.05F
PINE BELT      SUNNY     90  63  40 NW9       30.03F HX  90
$$

MSZ080>082-292300-
COASTAL MISSISSIPPI

CITY           SKY/WX    TMP DP  RH WIND       PRES   REMARKS
BAY ST LOUIS   MOSUNNY  N/A N/A N/A N7        30.01S
BILOXI         MOSUNNY   89  63  42 N7        30.00S HX  90
PASCAGOULA     MOSUNNY   88  64  44 W6        29.99S
GULFPORT       MOSUNNY   93  62  35 N8        29.99S HX  93
$$



USA.gov is the U.S. government's official web portal to all federal, state and local government web resources and services.